• In Deutschland
  • Länderverzeichnis
  • Für 7 Tage
  • Wassertemperatur
  • Satellitenkarten
  • Wetterkarte
  • Widgets
  • user-avatar
    Anmelden

    Stündliche Wetter Annaba

    Heute, 21 Mai, Montag

    Zeit Temperatur Niederschläge Wind Luftdruck Luftfeuchtigkeit
    00:00 +19°C° 0,3 mm 1 m/S 757 mmHg 95%
    01:00 +18°C° 0 mm 1 m/S 757 mmHg 95%
    02:00 +18°C° 0,4 mm 1 m/S 757 mmHg 95%
    03:00 +18°C° 0,4 mm 1 m/S 757 mmHg 95%
    04:00 +18°C° 0,4 mm 1 m/S 756 mmHg 95%
    05:00 +18°C° 0 mm 1 m/S 756 mmHg 93%
    06:00 +19°C° 0 mm 1 m/S 756 mmHg 91%
    07:00 +19°C° 0 mm 1 m/S 756 mmHg 90%
    08:00 +20°C° 0 mm 1 m/S 756 mmHg 86%
    09:00 +21°C° 0 mm 1 m/S 756 mmHg 83%
    10:00 +21°C° 0 mm 2 m/S 756 mmHg 80%
    11:00 +23°C° 0 mm 2 m/S 757 mmHg 76%
    12:00 +22°C° 0 mm 3 m/S 757 mmHg 73%
    13:00 +24°C° 0 mm 3 m/S 757 mmHg 70%
    14:00 +24°C° 0 mm 3 m/S 756 mmHg 71%
    15:00 +23°C° 0 mm 4 m/S 756 mmHg 71%
    16:00 +23°C° 0 mm 4 m/S 756 mmHg 72%
    17:00 +22°C° 0,1 mm 3 m/S 756 mmHg 76%
    18:00 +21°C° 0,1 mm 2 m/S 757 mmHg 79%
    19:00 +20°C° 0,1 mm 2 m/S 757 mmHg 83%
    20:00 +20°C° 0 mm 1 m/S 757 mmHg 87%
    21:00 +19°C° 0 mm 1 m/S 758 mmHg 90%
    22:00 +16°C° 0 mm 0 m/S 759 mmHg 94%
    23:00 +16°C° 0 mm 0 m/S 758 mmHg 94%

    Morgen, 22 Mai, Dienstag

    Zeit Temperatur Niederschläge Wind Luftdruck Luftfeuchtigkeit
    00:00 +16°C° 0 mm 0 m/S 758 mmHg 94%
    01:00 +16°C° 0 mm 0 m/S 758 mmHg 93%
    02:00 +18°C° 0 mm 1 m/S 758 mmHg 93%
    03:00 +16°C° 0 mm 1 m/S 758 mmHg 93%
    04:00 +16°C° 0 mm 1 m/S 758 mmHg 93%
    05:00 +18°C° 0 mm 1 m/S 758 mmHg 91%
    06:00 +17°C° 0 mm 0 m/S 758 mmHg 88%
    07:00 +18°C° 0 mm 0 m/S 758 mmHg 86%
    08:00 +18°C° 0,4 mm 0 m/S 759 mmHg 85%
    09:00 +21°C° 0,4 mm 1 m/S 759 mmHg 83%
    10:00 +21°C° 0,4 mm 1 m/S 759 mmHg 82%
    11:00 +23°C° 0,1 mm 1 m/S 759 mmHg 77%
    12:00 +24°C° 0,1 mm 1 m/S 759 mmHg 72%
    13:00 +25°C° 0,1 mm 1 m/S 759 mmHg 67%
    14:00 +25°C° 0,1 mm 2 m/S 759 mmHg 65%
    15:00 +26°C° 0,1 mm 2 m/S 759 mmHg 63%
    16:00 +26°C° 0,1 mm 3 m/S 759 mmHg 61%
    17:00 +25°C° 0,2 mm 3 m/S 759 mmHg 68%
    18:00 +24°C° 0,2 mm 2 m/S 759 mmHg 74%
    19:00 +21°C° 0,2 mm 2 m/S 759 mmHg 81%
    20:00 +20°C° 0 mm 2 m/S 760 mmHg 85%
    21:00 +20°C° 0 mm 1 m/S 761 mmHg 88%
    22:00 +19°C° 0 mm 1 m/S 762 mmHg 92%
    23:00 +19°C° 0 mm 1 m/S 762 mmHg 92%

    übermorgen, 23 Mai, Mittwoch

    Zeit Temperatur Niederschläge Wind Luftdruck Luftfeuchtigkeit
    00:00 +18°C° 0 mm 1 m/S 762 mmHg 92%
    01:00 +18°C° 0 mm 1 m/S 762 mmHg 92%
    02:00 +18°C° 0 mm 1 m/S 762 mmHg 92%
    03:00 +18°C° 0 mm 1 m/S 762 mmHg 91%
    04:00 +18°C° 0 mm 1 m/S 761 mmHg 91%
    05:00 +19°C° 0 mm 1 m/S 762 mmHg 88%
    06:00 +20°C° 0 mm 1 m/S 762 mmHg 84%
    07:00 +21°C° 0 mm 1 m/S 762 mmHg 81%
    08:00 +23°C° 0 mm 1 m/S 762 mmHg 73%
    09:00 +25°C° 0 mm 1 m/S 762 mmHg 64%
    10:00 +27°C° 0 mm 1 m/S 762 mmHg 56%
    11:00 +28°C° 0 mm 2 m/S 762 mmHg 53%
    12:00 +28°C° 0 mm 3 m/S 762 mmHg 50%
    13:00 +29°C° 0 mm 3 m/S 762 mmHg 47%
    14:00 +29°C° 0 mm 3 m/S 762 mmHg 49%
    15:00 +29°C° 0 mm 4 m/S 761 mmHg 50%
    16:00 +28°C° 0 mm 4 m/S 761 mmHg 51%
    17:00 +27°C° 0 mm 3 m/S 761 mmHg 57%
    18:00 +26°C° 0 mm 3 m/S 761 mmHg 62%
    19:00 +24°C° 0 mm 3 m/S 761 mmHg 68%
    20:00 +22°C° 0 mm 3 m/S 761 mmHg 71%
    21:00 +21°C° 0 mm 2 m/S 762 mmHg 74%
    22:00 +20°C° 0 mm 2 m/S 762 mmHg 77%
    23:00 +20°C° 0 mm 2 m/S 762 mmHg 76%

    24 Mai, Donnerstag

    Zeit Temperatur Niederschläge Wind Luftdruck Luftfeuchtigkeit
    00:00 +20°C° 0 mm 2 m/S 762 mmHg 76%
    01:00 +20°C° 0 mm 2 m/S 762 mmHg 75%
    02:00 +19°C° 0 mm 2 m/S 761 mmHg 75%
    03:00 +19°C° 0 mm 2 m/S 761 mmHg 75%
    04:00 +19°C° 0 mm 2 m/S 761 mmHg 74%
    05:00 +20°C° 0 mm 2 m/S 761 mmHg 72%
    06:00 +21°C° 0 mm 2 m/S 761 mmHg 70%
    07:00 +23°C° 0 mm 2 m/S 761 mmHg 68%
    08:00 +25°C° 0 mm 2 m/S 761 mmHg 62%
    09:00 +28°C° 0 mm 2 m/S 761 mmHg 55%
    10:00 +30°C° 0 mm 2 m/S 761 mmHg 48%
    11:00 +31°C° 0 mm 3 m/S 760 mmHg 46%
    12:00 +31°C° 0 mm 3 m/S 760 mmHg 44%
    13:00 +33°C° 0 mm 4 m/S 760 mmHg 42%
    14:00 +33°C° 0 mm 4 m/S 760 mmHg 44%
    15:00 +33°C° 0 mm 5 m/S 759 mmHg 45%
    16:00 +33°C° 0 mm 5 m/S 759 mmHg 46%
    17:00 +30°C° 0 mm 4 m/S 759 mmHg 53%
    18:00 +28°C° 0 mm 4 m/S 759 mmHg 59%
    19:00 +27°C° 0 mm 4 m/S 759 mmHg 65%
    20:00 +26°C° 0 mm 3 m/S 760 mmHg 68%
    21:00 +25°C° 0 mm 3 m/S 760 mmHg 71%
    22:00 +24°C° 0 mm 3 m/S 760 mmHg 73%
    23:00 +22°C° 0 mm 3 m/S 760 mmHg 73%

    25 Mai, Freitag

    Zeit Temperatur Niederschläge Wind Luftdruck Luftfeuchtigkeit
    00:00 +23°C° 0 mm 2 m/S 760 mmHg 73%
    01:00 +23°C° 0 mm 2 m/S 760 mmHg 72%
    02:00 +23°C° 0 mm 2 m/S 760 mmHg 71%
    03:00 +22°C° 0 mm 3 m/S 760 mmHg 71%
    04:00 +22°C° 0 mm 3 m/S 759 mmHg 70%
    05:00 +24°C° 0 mm 3 m/S 759 mmHg 68%
    06:00 +25°C° 0 mm 3 m/S 759 mmHg 66%
    07:00 +26°C° 0 mm 3 m/S 759 mmHg 64%
    08:00 +28°C° 0 mm 3 m/S 759 mmHg 57%
    09:00 +31°C° 0 mm 3 m/S 759 mmHg 49%
    10:00 +34°C° 0 mm 3 m/S 759 mmHg 41%
    11:00 +35°C° 0 mm 3 m/S 759 mmHg 38%
    12:00 +36°C° 0 mm 4 m/S 759 mmHg 35%
    13:00 +37°C° 0 mm 4 m/S 759 mmHg 32%
    14:00 +36°C° 0 mm 5 m/S 759 mmHg 34%
    15:00 +36°C° 0 mm 5 m/S 759 mmHg 35%
    16:00 +36°C° 0 mm 6 m/S 758 mmHg 36%
    17:00 +34°C° 0 mm 6 m/S 758 mmHg 43%
    18:00 +32°C° 0 mm 6 m/S 758 mmHg 50%
    19:00 +29°C° 0 mm 5 m/S 759 mmHg 56%
    20:00 +27°C° 0 mm 5 m/S 759 mmHg 59%
    21:00 +26°C° 0 mm 4 m/S 759 mmHg 61%
    22:00 +25°C° 0 mm 4 m/S 760 mmHg 64%
    23:00 +25°C° 0,1 mm 3 m/S 760 mmHg 64%

    26 Mai, Samstag

    Zeit Temperatur Niederschläge Wind Luftdruck Luftfeuchtigkeit
    00:00 +25°C° 0,1 mm 3 m/S 760 mmHg 65%
    01:00 +24°C° 0,1 mm 3 m/S 760 mmHg 65%
    02:00 +24°C° 0 mm 3 m/S 759 mmHg 65%
    03:00 +24°C° 0 mm 3 m/S 759 mmHg 64%
    04:00 +24°C° 0 mm 3 m/S 759 mmHg 64%
    05:00 +25°C° 0 mm 3 m/S 759 mmHg 63%
    06:00 +26°C° 0 mm 3 m/S 759 mmHg 62%
    07:00 +26°C° 0 mm 3 m/S 759 mmHg 61%
    08:00 +29°C° 0 mm 3 m/S 759 mmHg 53%
    09:00 +31°C° 0 mm 3 m/S 760 mmHg 45%
    10:00 +35°C° 0 mm 3 m/S 760 mmHg 37%
    11:00 +36°C° 0 mm 4 m/S 760 mmHg 34%
    12:00 +36°C° 0 mm 4 m/S 759 mmHg 32%
    13:00 +37°C° 0 mm 5 m/S 759 mmHg 29%
    14:00 +37°C° 0 mm 5 m/S 759 mmHg 30%
    15:00 +38°C° 0 mm 6 m/S 759 mmHg 31%
    16:00 +38°C° 0 mm 6 m/S 759 mmHg 33%
    17:00 +35°C° 0 mm 6 m/S 759 mmHg 39%
    18:00 +33°C° 0 mm 6 m/S 759 mmHg 45%
    19:00 +30°C° 0 mm 6 m/S 759 mmHg 51%
    20:00 +28°C° 0 mm 5 m/S 760 mmHg 53%
    21:00 +27°C° 0 mm 5 m/S 760 mmHg 54%
    22:00 +26°C° 0 mm 4 m/S 761 mmHg 56%
    23:00 +26°C° 0 mm 4 m/S 760 mmHg 55%
    Mehr zeigen